Wetbulb
53.98 54.29 54.51 54.67 54.52 54.70 54.88 55.04 55.51 56.08 56.40 56.76 56.96 56.76 56.67 56.73 56.27 55.49 52.93 54.16 56.75 61.92 59.79 53.69 53.13 53.93 54.20 53.31 57.01 57.72 51.70 49.51 50.33 50.53 51.63 55.54 53.65 56.41 57.89 55.87 57.60 59.85 61.64 65.18 67.65
53.95 54.14 54.27 54.44 54.43 54.48 54.74 54.88 55.40 55.91 56.24 56.69 56.86 56.85 56.63 56.50 53.70 53.40 57.99 59.11 60.40 60.71 53.49 51.90 50.92 52.43 50.49 51.78 54.15 52.08 49.98 51.05 54.73 54.97 53.81 55.25 54.79 54.79 54.71 54.65 56.24 58.20 63.10 65.70 66.95
53.65 53.98 54.04 54.05 54.21 54.14 54.30 54.61 55.08 55.76 56.07 56.27 56.52 56.45 56.68 56.04 53.36 52.77 60.51 61.91 61.76 59.12 55.10 54.17 51.89 51.74 49.32 50.91 51.96 52.53 49.58 53.87 55.25 56.65 57.12 55.74 55.54 56.72 54.01 52.73 55.38 56.95 61.31 63.87 66.18
53.63 53.89 54.01 53.88 53.89 54.05 54.23 54.52 54.97 55.60 55.91 56.06 56.24 56.51 57.25 55.10 45.13 54.23 61.22 61.25 61.98 58.25 54.96 51.84 50.50 48.55 47.52 47.48 50.56 48.79 52.61 54.16 55.28 56.80 56.36 55.61 57.63 56.00 55.63 54.74 57.44 58.78 62.08 63.71 63.93
53.36 53.48 53.58 53.63 53.71 53.93 54.06 54.38 54.63 55.16 55.40 55.64 56.34 56.66 55.80 53.57 50.93 56.24 61.55 60.03 57.96 56.30 52.55 50.45 48.13 48.40 46.95 48.36 49.60 48.16 50.24 52.93 54.33 54.89 55.19 56.54 55.52 55.75 55.79 57.55 58.67 58.76 59.23 62.61 63.69
52.94 53.02 53.00 53.15 53.19 53.37 54.04 54.14 54.28 54.67 54.92 55.65 56.64 57.08 54.24 49.23 54.26 55.37 55.64 55.31 54.60 53.29 51.96 51.74 50.02 50.06 46.75 46.73 47.86 49.82 49.85 50.27 52.21 53.39 54.37 53.36 54.29 56.08 57.50 59.18 58.22 58.36 58.61 62.49 62.86
53.03 52.62 52.58 52.62 52.95 53.14 53.94 53.95 54.13 54.56 54.98 55.85 57.09 56.46 52.53 51.77 54.17 54.95 54.82 52.99 53.76 53.31 50.89 52.22 52.12 49.47 48.99 45.81 49.41 49.31 46.45 48.74 49.71 50.58 51.29 53.98 50.84 52.40 57.44 58.95 58.47 58.88 58.39 59.28 63.40
53.73 53.35 52.72 52.64 52.72 53.16 53.61 54.17 53.91 54.52 55.69 56.72 57.24 55.24 51.04 54.37 54.60 53.21 53.25 52.03 53.61 53.14 52.21 53.01 53.04 50.03 48.02 49.02 46.56 44.02 45.14 42.46 47.96 49.40 50.57 50.24 46.16 52.65 55.69 56.52 56.86 58.26 59.15 59.41 60.47
53.72 53.27 52.94 52.75 52.72 53.19 53.58 53.60 53.89 56.03 56.89 56.84 54.62 54.41 49.56 55.43 51.47 52.73 52.79 50.22 51.65 52.44 52.91 52.78 51.14 47.67 47.55 43.60 41.58 42.99 38.03 40.41 43.22 49.08 48.85 48.56 46.71 51.95 54.77 54.75 55.39 57.13 58.09 59.60 60.19
53.46 52.86 52.40 52.28 52.57 53.00 53.11 53.13 55.31 55.07 56.09 57.42 56.09 49.94 52.16 48.70 51.08 51.65 53.29 52.10 49.55 50.27 49.60 49.62 48.20 45.34 45.47 42.48 35.38 38.86 39.81 41.25 40.89 44.98 46.69 46.74 47.42 51.10 53.18 52.87 54.04 55.90 57.41 58.48 60.31
52.84 52.88 53.06 52.59 52.17 52.73 52.67 55.55 52.11 51.17 53.93 49.92 48.60 48.99 49.69 51.14 52.64 50.20 52.01 49.98 49.92 48.55 43.79 46.82 42.85 40.80 43.69 45.49 44.79 43.54 41.91 40.85 43.42 45.84 44.77 44.83 47.11 49.39 52.26 52.60 52.49 54.65 56.61 57.20 58.02
52.48 52.90 52.98 52.92 52.82 52.80 52.16 52.54 50.79 51.71 45.37 50.58 50.04 49.81 50.61 50.60 46.22 49.29 51.59 46.31 45.51 41.59 44.35 42.84 40.16 44.52 45.45 44.84 43.49 42.69 40.58 40.07 42.98 44.92 44.66 44.42 44.27 48.15 51.26 51.99 53.64 54.89 55.13 56.27 58.58
52.26 52.63 52.92 52.72 52.59 52.12 54.27 52.42 55.46 54.94 45.62 47.67 49.51 47.90 48.58 49.71 45.99 46.99 49.37 46.99 43.50 41.56 42.13 39.87 42.00 44.78 43.46 42.16 40.95 41.47 40.07 40.17 39.84 42.98 44.08 42.89 41.86 45.70 49.02 52.01 53.29 54.38 56.09 57.23 57.30
51.95 52.24 52.70 51.93 49.88 54.77 53.41 55.81 55.97 55.31 41.05 43.59 44.95 47.29 48.26 48.18 45.22 49.92 49.92 46.34 43.68 40.72 41.97 41.30 43.78 42.02 41.44 40.55 41.34 37.35 42.41 41.58 41.10 39.42 34.66 42.70 34.44 43.14 46.78 48.88 51.54 52.77 54.30 55.95 57.19
51.90 52.43 52.32 50.91 52.69 53.62 53.98 56.27 55.71 52.81 33.28 44.23 45.16 51.20 48.24 45.54 46.56 47.71 50.48 46.68 41.73 41.76 41.94 39.09 40.87 40.78 40.00 40.44 42.94 40.05 43.64 42.17 41.13 39.11 38.29 38.22 35.67 39.78 44.84 45.15 49.03 52.65 54.25 55.71 57.04
51.54 52.24 52.05 54.32 53.79 55.83 55.92 56.16 54.49 41.02 32.25 40.94 44.75 43.59 44.12 46.34 46.16 47.32 47.14 48.95 47.74 43.37 43.42 41.90 45.52 43.84 43.06 44.44 44.67 45.07 42.15 41.70 40.92 39.21 32.27 36.46 36.55 37.47 41.16 44.48 47.47 51.57 54.23 55.19 56.26
51.29 51.34 50.75 54.86 52.50 56.50 55.71 52.31 39.82 35.36 43.67 40.42 41.32 43.77 43.37 42.82 43.51 44.03 42.62 42.03 40.01 36.17 36.11 39.88 40.94 43.91 44.89 40.85 43.47 43.24 38.80 31.05 29.52 30.56 29.92 38.52 36.25 39.41 44.49 46.08 47.88 49.85 52.69 54.58 56.19
50.15 50.18 52.69 53.27 56.76 56.74 52.77 45.38 34.35 41.30 41.56 44.10 42.78 42.76 40.95 43.55 42.63 42.49 41.18 39.56 42.72 40.52 36.70 33.45 31.63 39.72 43.35 40.44 38.92 38.95 35.43 29.80 23.33 25.96 30.40 37.89 32.54 37.80 45.76 47.83 50.10 51.38 52.73 54.79 56.34
48.86 55.90 54.40 56.52 57.44 55.73 47.31 38.27 38.44 40.32 42.60 40.58 41.47 39.90 40.20 42.29 41.68 41.26 40.85 40.09 41.50 41.85 35.35 33.93 33.86 42.05 42.31 43.47 43.26 39.62 35.61 38.76 33.16 35.40 30.34 34.23 37.56 42.03 45.28 46.10 47.84 50.26 52.08 54.26 55.42
49.86 52.83 53.63 57.96 57.35 52.13 44.03 39.35 42.35 44.27 43.26 42.14 36.54 40.62 37.14 39.21 39.02 39.68 39.69 42.93 41.34 43.95 44.13 39.26 32.67 40.21 41.37 43.01 42.70 41.47 42.79 34.78 34.89 25.15 23.87 31.33 33.15 35.16 41.44 44.72 46.68 49.11 51.72 53.38 56.53
51.22 49.98 54.90 56.71 54.38 47.68 40.32 42.04 43.34 44.67 43.70 40.39 39.72 38.65 39.37 38.23 39.52 38.43 38.88 42.24 44.13 43.21 44.55 41.69 37.52 36.60 40.81 38.47 37.53 39.25 37.77 37.87 36.52 33.64 26.60 26.45 32.01 43.87 43.19 43.66 42.93 48.41 51.73 54.90 55.50
50.83 44.08 55.28 54.60 43.55 46.35 41.74 43.51 43.51 43.07 45.09 43.64 43.73 41.76 39.06 39.51 37.98 38.09 37.68 41.21 45.21 44.08 39.23 42.34 38.13 32.84 35.29 41.64 43.02 41.76 38.88 37.95 31.65 29.92 33.75 32.90 32.75 45.29 43.88 42.37 42.99 42.85 52.21 53.66 56.74
47.51 48.47 55.19 52.84 41.37 41.36 44.21 44.31 45.08 42.44 42.68 41.88 41.21 42.57 43.10 39.11 35.48 39.39 40.70 45.14 45.16 42.99 39.90 40.89 35.60 29.15 31.99 38.02 40.83 37.27 38.62 39.57 39.52 37.54 32.14 29.50 32.52 44.75 42.54 40.91 43.18 43.90 50.05 52.96 54.32
48.24 43.58 48.57 49.16 48.14 44.22 42.00 41.18 41.72 46.10 43.04 43.51 42.13 42.96 40.67 39.15 41.14 38.01 39.23 43.26 44.09 43.02 42.55 41.29 36.20 32.06 27.97 32.60 34.51 32.32 34.79 38.19 37.94 32.89 33.27 33.82 35.50 40.19 39.62 40.48 42.90 45.02 46.89 52.13 53.46
49.07 44.34 45.70 39.93 41.91 43.70 43.28 41.46 40.43 40.36 44.17 44.61 41.58 40.96 39.61 36.61 37.98 36.80 40.29 41.21 43.92 44.15 43.26 39.00 33.36 36.13 36.88 37.55 37.94 36.78 35.74 37.74 36.51 37.43 33.14 35.28 35.44 39.44 41.60 41.67 43.01 44.83 47.49 50.89 51.88
43.15 41.76 43.88 41.01 44.41 43.12 42.35 40.92 39.24 41.04 40.85 39.21 38.85 40.55 41.01 37.62 38.60 36.77 39.67 40.48 40.29 43.11 40.90 41.20 35.34 36.73 34.71 37.88 37.73 35.97 37.96 38.67 38.64 38.17 37.70 37.74 37.07 43.02 45.12 45.58 45.67 47.80 48.98 49.66 50.99
47.21 47.80 41.35 40.12 43.28 41.67 41.51 40.71 39.75 40.70 41.46 42.90 41.33 39.53 39.11 40.98 44.18 44.92 45.62 45.56 44.34 40.90 37.44 36.98 36.64 34.37 30.29 36.29 35.42 32.31 37.54 38.66 39.48 40.31 39.33 35.29 40.15 44.70 43.54 44.75 47.36 48.28 49.36 49.82 50.87
MSLP
1020.37 1019.95 1019.53 1019.16 1018.83 1018.47 1018.09 1017.71 1017.32 1016.90 1016.46 1016.07 1015.65 1015.21 1014.79 1014.49 1013.91 1012.28 1011.49 1011.20 1010.85 1010.89 1010.38 1009.46 1008.51 1007.92 1007.63 1007.15 1006.66 1005.52 1004.52 1002.99 1002.12 1001.05 999.71 998.68 997.77 996.84 996.57 996.58 996.35 995.84 995.70 996.26 995.80
1020.46 1020.01 1019.56 1019.17 1018.77 1018.34 1017.92 1017.52 1017.14 1016.81 1016.40 1015.88 1015.36 1014.92 1014.57 1014.25 1013.28 1011.26 1010.85 1010.72 1010.48 1010.50 1010.03 1008.35 1007.42 1006.87 1006.68 1005.96 1006.16 1005.52 1003.78 1001.99 1001.43 1000.33 999.42 998.66 998.18 997.48 997.09 996.74 996.31 995.91 995.85 996.46 996.58
1020.48 1020.02 1019.59 1019.15 1018.70 1018.25 1017.82 1017.40 1016.93 1016.49 1016.05 1015.59 1015.16 1014.70 1014.46 1014.17 1011.87 1009.84 1010.59 1010.44 1010.46 1010.54 1009.95 1008.82 1007.83 1006.96 1005.91 1005.31 1004.82 1004.53 1002.27 1002.11 1000.93 1000.16 999.63 998.88 998.03 997.77 997.54 997.02 996.42 996.08 996.20 996.63 996.93
1020.48 1019.99 1019.56 1019.06 1018.56 1018.08 1017.63 1017.21 1016.81 1016.36 1015.87 1015.43 1015.01 1014.49 1014.01 1013.52 1010.23 1009.78 1010.17 1010.22 1010.08 1010.02 1009.11 1007.81 1007.20 1006.51 1005.75 1004.72 1004.10 1003.36 1002.22 1001.96 1001.02 1000.44 999.93 998.98 998.48 997.81 998.06 997.60 996.94 996.43 996.27 996.46 996.90
1020.47 1019.96 1019.46 1018.93 1018.39 1017.87 1017.36 1016.87 1016.45 1016.02 1015.56 1015.16 1014.80 1014.48 1013.38 1011.20 1008.74 1009.25 1009.58 1009.63 1009.33 1008.43 1007.86 1007.14 1006.68 1006.02 1005.03 1004.46 1003.94 1002.26 1001.62 1001.30 1000.75 1000.33 1000.11 999.72 998.84 998.38 998.33 998.34 997.71 997.11 996.22 996.19 996.92
1020.31 1019.84 1019.34 1018.75 1018.16 1017.58 1017.04 1016.63 1016.25 1015.80 1015.26 1014.74 1014.54 1014.42 1013.05 1009.87 1008.15 1008.14 1008.45 1008.20 1007.79 1007.74 1007.42 1006.94 1006.23 1005.92 1005.27 1004.49 1003.37 1002.76 1001.92 1000.96 1000.22 999.68 999.44 999.40 998.88 998.87 997.71 998.35 998.29 997.69 996.79 996.78 998.06
1020.31 1019.77 1019.18 1018.56 1017.95 1017.33 1016.70 1016.17 1015.75 1015.35 1014.90 1014.43 1014.23 1013.73 1011.66 1008.84 1008.06 1007.89 1007.66 1007.56 1007.35 1007.56 1007.45 1007.18 1006.97 1006.82 1005.87 1004.90 1003.65 1003.33 1002.23 1001.15 999.92 999.54 999.09 999.43 998.58 997.64 997.97 998.28 998.17 997.82 997.21 997.18 997.47
1020.11 1019.62 1019.10 1018.45 1017.78 1017.12 1016.49 1015.91 1015.43 1014.83 1014.26 1013.99 1013.93 1013.07 1009.96 1007.94 1008.07 1007.63 1007.75 1007.39 1007.16 1007.07 1006.89 1006.86 1007.19 1006.92 1006.47 1005.67 1004.50 1003.71 1002.54 1000.70 999.42 1000.08 998.96 999.66 997.23 997.21 997.81 997.87 997.88 998.07 997.66 997.01 996.80
1019.91 1019.30 1018.69 1018.04 1017.40 1016.72 1016.09 1015.49 1014.94 1014.23 1013.83 1013.59 1013.19 1011.72 1008.41 1008.14 1007.80 1007.67 1007.70 1007.37 1007.21 1006.94 1006.65 1006.46 1006.72 1006.63 1006.13 1005.23 1004.17 1003.00 1001.82 1000.86 999.51 999.01 998.75 998.80 997.22 996.82 997.45 997.43 997.39 997.68 997.78 997.23 996.67
1019.77 1019.09 1018.39 1017.76 1017.06 1016.34 1015.67 1014.70 1014.04 1014.09 1013.38 1012.47 1011.64 1010.45 1008.25 1007.21 1007.27 1007.78 1007.28 1007.11 1006.98 1006.59 1006.26 1005.63 1005.65 1005.50 1004.95 1004.42 1002.72 1002.09 1000.98 1000.01 998.99 998.73 998.54 997.68 996.75 996.06 996.49 996.85 996.58 996.74 996.97 997.03 996.47
1019.60 1018.87 1018.05 1017.32 1016.60 1016.15 1015.44 1013.25 1013.56 1013.13 1011.97 1009.83 1008.90 1008.00 1007.56 1007.11 1007.50 1007.21 1006.86 1007.12 1006.47 1006.25 1005.62 1005.09 1004.78 1004.11 1003.44 1003.05 1002.46 1002.07 1001.41 1000.30 999.48 998.90 998.60 997.66 996.40 995.14 995.27 995.53 995.64 995.83 996.10 996.17 996.06
1019.35 1018.56 1017.64 1016.90 1016.23 1015.70 1015.69 1012.68 1011.72 1011.52 1010.17 1008.83 1007.99 1007.74 1007.77 1007.80 1007.51 1006.73 1006.88 1007.11 1006.75 1006.25 1005.81 1005.27 1004.22 1003.72 1003.31 1003.04 1002.81 1002.67 1002.12 1001.16 1000.72 1000.40 999.98 998.51 997.13 995.76 995.03 994.46 994.55 994.70 995.03 995.37 995.39
1019.08 1018.23 1017.39 1016.60 1015.85 1015.01 1013.14 1011.79 1011.42 1010.92 1010.13 1007.49 1007.31 1007.23 1007.13 1007.27 1006.99 1006.69 1006.92 1007.06 1006.93 1006.40 1005.89 1005.32 1004.72 1004.30 1003.85 1003.54 1003.14 1002.59 1002.29 1001.81 1001.39 1001.13 1000.81 999.57 998.00 996.65 995.40 994.90 994.52 994.35 994.09 994.13 994.61
1018.85 1017.98 1017.13 1016.37 1015.99 1012.10 1011.32 1011.39 1010.95 1011.14 1009.63 1007.37 1007.00 1006.79 1007.05 1006.89 1006.23 1006.66 1006.81 1007.19 1007.04 1006.65 1006.30 1005.67 1005.22 1004.57 1004.03 1003.48 1003.45 1002.55 1002.55 1002.00 1001.61 1001.36 1000.63 1000.21 997.96 997.27 995.95 994.97 994.71 994.38 993.87 993.55 993.80
1018.48 1017.63 1016.82 1016.70 1014.62 1011.65 1011.66 1011.26 1011.33 1011.24 1008.54 1006.99 1006.42 1007.09 1006.88 1006.75 1006.16 1005.47 1006.14 1006.74 1006.60 1006.35 1006.39 1005.57 1005.01 1004.45 1004.08 1003.69 1003.35 1002.63 1002.60 1002.33 1002.08 1001.55 1001.07 1000.41 999.33 996.34 996.81 994.84 994.37 993.65 993.41 993.09 993.25
1018.12 1017.34 1016.77 1014.84 1014.33 1011.90 1011.42 1011.44 1011.23 1010.32 1007.38 1006.45 1006.46 1006.39 1006.17 1005.61 1005.41 1005.31 1005.38 1005.58 1005.39 1005.18 1005.14 1004.92 1004.95 1004.82 1004.78 1004.63 1004.55 1004.16 1003.67 1002.94 1002.38 1001.84 1000.60 1000.06 999.44 996.82 996.26 995.28 994.32 993.29 992.53 992.31 992.31
1017.57 1016.77 1016.63 1014.75 1012.47 1011.81 1011.79 1011.16 1010.42 1008.35 1007.08 1006.34 1006.32 1006.40 1006.09 1005.45 1005.15 1005.04 1005.25 1004.96 1004.63 1004.76 1004.87 1004.86 1004.86 1005.27 1006.22 1005.54 1004.50 1004.21 1004.10 1003.67 1002.56 1001.57 999.92 999.49 998.53 996.93 995.78 995.19 994.24 993.24 992.37 991.72 991.46
1017.08 1015.90 1014.77 1014.05 1012.69 1012.32 1012.11 1011.24 1009.69 1007.59 1007.05 1007.18 1007.25 1007.00 1005.96 1004.96 1004.94 1005.09 1005.09 1004.62 1004.57 1005.18 1005.29 1005.42 1005.12 1005.70 1006.36 1006.09 1004.85 1004.18 1006.49 1005.46 1003.43 1002.06 1000.26 999.08 997.77 996.66 996.02 995.37 994.28 993.39 992.63 991.72 991.25
1016.79 1014.10 1014.02 1013.21 1012.89 1012.68 1012.20 1010.57 1008.90 1008.32 1008.40 1008.42 1008.12 1006.86 1006.09 1005.69 1005.77 1005.51 1005.08 1004.96 1005.20 1005.76 1006.06 1005.87 1005.47 1005.47 1005.03 1004.73 1004.73 1003.91 1003.94 1005.02 1004.52 1003.40 1002.33 1000.08 998.39 996.99 996.33 995.50 994.74 993.47 992.59 991.46 991.04
1016.71 1014.22 1012.40 1012.62 1012.74 1012.87 1012.09 1010.48 1009.06 1008.61 1009.03 1009.13 1008.71 1008.04 1007.36 1007.02 1006.72 1006.38 1006.01 1005.82 1005.89 1006.53 1006.33 1006.48 1005.64 1005.64 1004.81 1004.52 1005.28 1004.40 1003.68 1003.44 1004.51 1004.47 1002.29 1000.44 998.87 997.39 996.57 995.87 995.17 993.93 992.47 991.39 990.41
1015.73 1012.89 1012.66 1012.63 1012.85 1012.43 1011.37 1009.79 1009.22 1009.57 1009.87 1009.84 1009.21 1009.06 1008.64 1008.36 1008.11 1007.50 1007.03 1006.61 1006.55 1006.73 1007.30 1007.19 1006.97 1005.96 1005.97 1004.17 1003.28 1003.30 1003.31 1004.21 1005.34 1005.18 1003.38 1000.92 998.83 998.14 999.19 999.81 999.01 995.87 993.00 991.21 990.86
1015.14 1012.67 1012.52 1012.61 1012.37 1011.80 1010.73 1009.97 1010.01 1009.73 1010.03 1009.67 1009.57 1009.70 1009.73 1009.56 1009.01 1008.50 1007.82 1007.23 1007.84 1007.67 1008.09 1008.36 1008.49 1007.06 1005.66 1004.00 1003.15 1003.01 1003.12 1003.98 1004.02 1004.20 1003.10 1001.37 999.11 999.98 1001.83 1002.06 1001.62 999.29 994.46 992.82 991.13
1015.47 1012.89 1012.26 1012.16 1011.94 1011.68 1011.12 1010.26 1009.88 1009.89 1010.07 1009.97 1009.98 1010.41 1010.59 1010.28 1009.87 1008.96 1008.66 1008.17 1008.12 1008.87 1009.93 1010.80 1009.64 1008.26 1005.95 1003.82 1004.45 1004.66 1005.07 1004.34 1003.67 1003.88 1002.59 1001.60 999.54 1001.10 1002.56 1003.54 1002.21 1000.60 997.33 994.38 991.61
1016.01 1013.12 1012.08 1011.90 1012.08 1011.91 1011.42 1011.33 1010.46 1010.19 1010.09 1010.48 1010.73 1010.75 1010.68 1010.26 1010.03 1009.36 1008.77 1008.37 1008.93 1009.97 1010.91 1011.61 1010.73 1009.49 1007.44 1005.76 1005.98 1006.38 1005.61 1003.50 1003.33 1002.65 1001.48 1000.43 1000.36 1001.00 1003.86 1004.23 1003.31 1001.44 999.10 994.12 991.30
1016.18 1014.86 1015.13 1013.63 1013.11 1012.91 1012.62 1012.37 1011.49 1010.82 1010.40 1010.47 1010.58 1010.77 1010.64 1010.37 1009.73 1009.17 1008.59 1008.24 1008.18 1009.15 1010.24 1011.57 1010.41 1008.96 1007.35 1006.04 1005.31 1004.74 1004.10 1001.73 1001.45 1000.51 1000.15 998.91 999.21 998.97 1001.30 1002.12 1001.41 999.39 997.84 994.49 992.13
1018.39 1018.29 1017.17 1015.78 1014.39 1013.40 1012.41 1012.06 1012.23 1011.95 1012.40 1012.04 1011.62 1011.36 1011.01 1010.37 1009.86 1008.66 1008.28 1008.23 1008.09 1008.61 1010.06 1010.63 1009.82 1008.68 1006.80 1005.60 1004.46 1003.21 1001.86 1000.66 999.71 999.70 998.45 997.90 997.59 997.22 997.26 998.75 998.56 997.54 995.60 993.88 992.11
1020.04 1019.89 1019.63 1016.94 1014.38 1013.27 1012.68 1012.78 1012.90 1013.07 1012.99 1012.43 1012.37 1012.10 1011.15 1010.26 1009.46 1008.36 1007.73 1007.46 1007.71 1008.24 1009.99 1010.63 1009.98 1008.69 1006.23 1005.36 1004.87 1002.86 1000.75 1000.24 999.65 999.24 998.37 997.28 997.10 996.73 996.77 996.59 995.85 994.85 994.05 993.01 992.48
Wind_Speed
17 17 18 18 18 18 18 18 18 18 17 18 18 18 19 18 20 20 12 4 6 9 14 15 13 14 15 17 20 19 17 18 25 23 18 19 21 22 11 15 18 20 12 10 6
17 17 18 18 18 18 18 18 18 18 18 18 18 18 18 17 19 17 7 2 7 9 10 13 13 15 15 16 13 18 18 27 24 22 19 18 19 23 13 19 18 21 7 6 14
17 17 17 18 18 18 18 18 18 18 19 19 19 19 17 16 12 9 9 1 8 10 13 15 15 16 19 19 21 22 28 24 27 26 23 26 22 12 16 21 20 17 15 8 8
18 18 18 19 19 18 18 18 17 18 18 19 19 18 17 12 2 8 10 9 13 12 12 13 13 16 18 21 22 28 30 28 29 24 26 28 25 17 16 20 24 19 20 8 14
18 18 19 19 19 19 19 20 19 19 19 19 17 15 12 9 1 12 12 14 15 14 11 9 11 14 19 19 22 30 29 29 28 26 24 27 29 26 17 20 23 25 21 16 16
19 19 19 20 20 20 19 19 18 18 19 19 15 12 10 14 3 2 6 9 6 9 10 12 10 13 17 21 22 22 27 29 28 29 26 28 29 24 26 19 23 24 25 7 7
18 20 21 21 21 21 20 19 19 19 20 18 13 9 12 12 1 4 7 9 9 3 7 10 13 11 14 18 18 19 26 26 28 25 27 25 26 30 23 22 24 23 23 20 19
19 19 20 21 21 22 21 20 20 21 20 14 8 10 9 6 6 5 10 10 8 12 12 9 9 13 14 16 22 22 24 21 23 27 28 23 28 29 25 19 21 23 23 21 21
21 21 22 23 22 23 21 21 22 19 11 7 7 9 11 5 8 7 10 10 11 11 11 8 7 13 14 14 16 16 20 24 26 24 23 27 31 27 23 21 22 21 21 22 20
21 23 24 23 24 23 22 26 14 11 8 9 10 9 11 6 9 9 10 10 10 11 12 12 12 13 13 14 17 17 20 20 26 24 25 25 29 28 24 25 23 21 21 22 22
24 23 22 23 23 20 16 9 6 7 14 13 14 13 11 4 6 7 8 8 11 9 14 11 12 13 17 17 20 19 21 25 26 26 26 22 25 27 23 25 25 20 19 23 26
25 25 25 23 21 19 11 9 9 9 11 16 15 11 9 7 8 9 4 9 13 14 15 13 15 15 15 17 19 20 23 25 24 23 22 24 28 29 21 21 20 21 22 22 20
24 25 25 23 18 11 12 7 8 10 9 7 3 5 7 5 10 12 5 9 14 16 15 15 17 20 19 19 22 19 19 21 23 20 20 25 27 26 26 24 19 20 20 21 19
25 25 24 21 6 6 3 6 9 8 7 8 8 4 6 4 16 3 8 7 12 16 18 15 19 20 20 22 19 21 20 23 22 19 17 18 19 21 22 24 21 23 23 17 16
26 27 24 10 11 6 9 9 9 6 5 4 8 7 4 9 10 11 1 7 14 15 15 18 19 19 21 23 22 24 23 21 22 22 22 22 17 19 22 24 23 20 22 19 16
27 26 23 5 7 6 8 8 6 7 2 6 1 4 10 11 15 5 12 12 18 21 18 20 18 15 17 21 22 22 24 25 22 18 18 23 21 21 19 22 25 22 19 22 23
30 27 15 10 7 9 9 8 6 7 5 3 6 11 13 18 5 6 9 13 13 10 13 17 17 8 12 18 20 14 16 14 16 15 17 22 22 17 23 23 27 23 21 19 18
33 28 6 8 11 8 8 8 6 10 12 15 10 15 17 11 7 6 13 12 7 11 13 12 15 8 5 21 21 9 7 7 13 16 17 20 15 16 20 23 23 23 24 19 14
30 3 4 8 4 5 7 6 3 10 12 11 14 12 11 14 12 13 11 10 7 8 12 14 15 19 20 17 17 19 14 13 14 17 18 18 24 19 22 22 22 24 23 17 15
10 8 3 6 1 4 6 10 13 8 10 12 12 8 13 16 13 13 13 11 10 15 10 14 21 19 23 10 18 24 19 10 1 7 17 17 21 14 15 16 21 22 20 23 14
6 5 5 3 1 6 6 12 12 15 11 7 13 14 15 15 13 13 14 16 12 16 15 18 14 17 20 20 16 11 10 6 8 6 11 15 13 8 22 25 28 28 20 4 8
6 3 5 3 6 4 6 8 3 5 8 12 7 12 9 14 15 19 18 14 15 12 15 10 7 17 22 25 21 19 16 13 9 13 14 12 19 16 21 27 31 35 9 15 6
8 4 6 3 3 6 11 14 11 6 9 11 9 10 12 14 15 10 17 18 17 12 9 9 5 11 14 19 9 7 14 18 15 9 15 13 14 15 22 24 29 27 20 23 11
7 5 3 3 4 8 13 13 13 11 9 4 7 9 13 12 13 11 18 19 6 6 4 5 7 15 16 21 4 7 19 25 19 11 15 14 19 8 9 12 23 25 26 19 13
5 5 6 7 9 13 8 13 13 13 11 9 11 14 13 16 17 19 15 22 19 5 4 6 9 15 20 23 22 21 27 31 23 19 19 15 18 11 9 7 19 20 31 16 12
7 7 9 13 10 14 5 8 12 10 14 14 14 14 17 17 17 25 23 18 18 17 8 4 6 15 18 19 22 24 25 27 25 21 22 18 17 13 9 13 22 28 18 11 11
4 1 4 10 9 12 9 10 11 14 9 11 15 18 19 17 21 22 22 22 20 20 4 3 5 9 16 16 15 15 17 17 24 17 21 18 12 14 9 14 18 10 14 10 11
Wind_Direction
345 342 340 338 336 334 332 330 328 326 323 319 316 315 313 314 304 282 242 44 355 328 324 281 262 255 234 242 264 253 249 247 247 250 267 280 290 288 247 262 264 271 265 19 272
342 339 337 335 332 331 330 328 326 324 320 319 318 317 316 319 302 278 106 110 342 333 302 290 258 236 234 239 222 235 244 241 246 257 256 264 255 273 270 269 255 244 267 72 103
339 337 334 332 329 327 326 324 323 323 321 318 316 313 314 313 277 112 166 168 290 287 263 268 278 270 259 233 232 223 245 248 252 257 255 268 276 265 270 265 254 243 248 182 217
339 337 335 331 327 324 322 319 318 317 314 312 311 311 311 285 337 107 178 223 247 257 271 257 251 249 254 253 243 243 240 245 256 265 280 280 287 275 261 273 288 285 235 211 222
339 338 335 329 325 323 321 319 318 316 311 308 309 313 310 230 22 145 188 221 251 250 275 280 277 270 257 253 253 253 251 252 251 250 259 273 270 273 257 263 281 287 284 216 215
337 336 333 328 324 320 317 313 310 308 304 303 305 306 257 285 41 54 247 263 279 321 310 302 293 290 286 283 270 265 261 262 261 261 255 247 258 260 251 247 265 275 280 217 225
336 334 331 327 322 319 315 312 309 305 299 294 296 283 272 272 303 319 288 314 311 283 296 307 319 305 301 295 265 266 273 276 266 264 255 257 257 248 254 252 250 258 266 272 196
335 331 328 325 320 315 311 308 306 302 296 282 271 267 260 80 337 284 336 314 318 322 297 267 277 282 279 277 284 279 281 263 250 251 255 260 256 248 252 246 245 254 266 266 267
337 333 331 327 320 314 310 306 302 297 270 266 249 222 274 129 232 12 314 314 312 295 301 284 264 270 281 268 264 241 259 262 268 252 248 238 254 249 254 251 243 236 257 266 261
336 334 331 325 318 313 313 296 286 298 233 227 252 265 256 249 12 316 287 302 305 294 282 248 233 255 245 245 254 270 259 250 251 256 265 257 241 247 241 250 243 239 228 247 251
335 331 325 323 316 311 319 301 210 202 235 270 295 260 297 327 323 287 12 315 286 281 285 315 299 277 283 271 273 291 284 279 282 293 299 290 265 261 238 237 237 239 237 232 250
331 328 326 321 311 308 289 277 36 311 300 279 271 258 285 276 280 296 315 286 320 306 304 289 269 271 285 275 275 274 277 278 286 291 291 285 281 280 271 256 243 231 226 239 257
328 326 325 322 316 285 245 28 324 320 286 308 193 244 225 223 273 306 324 313 295 298 301 297 299 304 294 289 284 276 272 276 282 290 283 284 280 275 272 277 283 283 265 223 228
330 328 327 322 293 263 227 350 326 2 273 130 182 174 216 245 263 220 253 300 304 298 298 295 296 287 282 272 278 278 279 281 282 282 276 277 275 262 269 264 252 257 269 249 232
329 329 328 309 316 304 357 335 349 263 270 136 120 100 260 244 281 289 174 254 276 281 284 289 293 288 288 284 291 285 290 281 279 277 281 268 261 268 269 271 257 255 246 254 252
328 328 331 230 231 304 325 334 261 239 268 147 233 255 272 299 292 340 279 242 261 266 261 269 279 287 309 307 302 305 294 291 272 270 258 261 259 266 263 262 265 267 257 232 232
325 323 315 310 325 349 334 285 250 271 120 95 346 323 317 286 298 305 301 284 296 320 313 316 316 16 342 318 288 266 273 266 250 245 257 253 250 257 267 266 262 267 267 279 274
325 316 262 255 309 351 304 271 267 313 333 6 329 313 278 290 307 326 300 295 317 348 321 322 311 5 219 270 291 259 232 263 271 273 279 296 290 294 307 299 284 274 277 262 287
317 276 230 234 285 305 288 258 282 3 354 335 313 303 315 337 339 314 305 323 340 334 311 311 293 290 296 298 292 286 258 179 282 283 280 277 285 266 265 270 263 266 253 254 256
315 289 284 124 148 285 264 262 285 21 355 325 305 296 323 323 328 324 332 328 350 320 322 314 303 300 301 293 307 281 297 290 169 276 275 257 252 277 262 272 246 258 252 240 233
254 246 89 358 278 248 265 293 350 358 332 318 321 314 321 327 319 302 301 307 343 338 331 304 300 309 311 280 266 273 235 295 345 274 280 264 267 276 8 355 329 311 271 144 260
295 320 96 262 260 235 272 346 289 302 315 276 289 305 325 316 318 308 302 313 325 351 325 7 296 288 290 293 287 285 301 188 266 283 255 277 272 24 13 349 336 327 69 302 254
302 300 143 244 340 332 318 332 321 343 330 317 310 346 314 313 308 306 311 305 327 351 353 2 287 301 293 277 61 20 321 309 294 307 283 278 282 358 25 343 328 323 319 280 328
286 321 129 306 222 299 343 319 332 319 288 359 295 282 299 302 299 288 293 302 36 334 277 244 249 254 270 284 110 272 285 285 277 271 272 275 296 337 44 319 313 305 306 288 309
280 37 24 313 333 317 332 310 298 321 343 326 328 317 307 308 306 296 299 305 309 243 231 181 262 274 264 269 275 243 239 258 240 253 250 293 284 293 177 206 275 267 261 281 326
350 347 350 294 306 287 256 306 314 329 339 313 295 327 322 302 295 295 297 297 294 306 310 187 269 283 282 276 269 269 265 270 273 274 274 275 277 268 231 190 243 249 273 311 324
28 119 320 295 295 325 342 331 301 311 307 317 323 308 295 296 291 289 293 292 286 287 167 242 285 298 283 298 342 286 281 315 305 278 273 267 321 328 273 249 254 319 318 313 307